User: anonymous   Login
Location: Auckland
(36.8670°S, 174.7670°E)
Time: 12:45:39
(UTC+13:00)
Language:

Cosmos 2219 Rocket - Orbit

View from above orbital plane
View from above orbital plane
View from above satellite
View from above satellite

Ground track
Ground track

The orbit data is extracted from the following two-line orbital elements,

1 22220U 92076B   19080.63429090 -.00000242  00000-0 -97551-4 0  9994
2 22220  70.9988 146.8984 0012456   3.2549 106.9301 14.16441714361746
Epoch (UTC): 21 March 2019 15:13:22
Eccentricity: 0.0012456
inclination: 70.9988°
perigee height: 828 km
apogee height: 846 km
right ascension of ascending node: 146.8984°
argument of perigee: 3.2549°
revolutions per day: 14.16441714
mean anomaly at epoch: 106.9301°
orbit number at epoch: 36174

The dashed part of the orbit path shows where the satellite is in the earth's shadow,  

DLR